Total_Precipitation_Accumulation
0.05 0.06 0.07 0.08 0.08 0.07 0.12 0.08 0.10 0.06 0.07 0.09 0.07 0.08 0.07 0.07 0.07 0.06 0.06 0.07 0.07 0.08 0.13 0.15 0.15 0.15 0.14 0.16 0.21 0.21 0.18 0.18 0.16 0.17 0.18 0.18 0.20 0.23 0.23 0.23 0.37 0.34 0.21 0.07 0.02 0.01 0.01 0.00 0.02 0.03 0.06 0.09 0.15 0.16 0.15 0.06 0.04 0.06 0.04 0.07 0.09 0.13 0.10
0.07 0.07 0.08 0.09 0.09 0.08 0.08 0.13 0.10 0.07 0.08 0.07 0.06 0.07 0.08 0.09 0.12 0.07 0.08 0.06 0.06 0.06 0.07 0.12 0.14 0.11 0.10 0.12 0.19 0.23 0.23 0.22 0.20 0.23 0.22 0.19 0.19 0.21 0.21 0.18 0.23 0.28 0.24 0.15 0.05 0.02 0.01 0.01 0.01 0.03 0.04 0.07 0.09 0.13 0.17 0.15 0.10 0.07 0.08 0.07 0.11 0.14 0.10
0.11 0.11 0.11 0.11 0.09 0.09 0.11 0.12 0.13 0.10 0.13 0.14 0.13 0.10 0.08 0.07 0.07 0.06 0.06 0.06 0.05 0.05 0.06 0.08 0.11 0.12 0.12 0.12 0.21 0.22 0.24 0.24 0.25 0.24 0.22 0.22 0.16 0.14 0.12 0.14 0.19 0.24 0.22 0.17 0.12 0.05 0.03 0.02 0.02 0.03 0.04 0.05 0.09 0.11 0.09 0.15 0.18 0.15 0.14 0.11 0.11 0.11 0.09
0.09 0.10 0.10 0.11 0.11 0.15 0.10 0.11 0.09 0.11 0.14 0.15 0.12 0.14 0.16 0.12 0.09 0.08 0.09 0.10 0.07 0.06 0.06 0.07 0.10 0.11 0.12 0.17 0.19 0.20 0.21 0.23 0.24 0.24 0.24 0.22 0.19 0.18 0.13 0.09 0.10 0.15 0.19 0.17 0.16 0.09 0.06 0.03 0.03 0.03 0.04 0.05 0.06 0.10 0.14 0.15 0.22 0.23 0.21 0.17 0.17 0.09 0.10
0.09 0.10 0.11 0.11 0.09 0.08 0.07 0.08 0.07 0.08 0.08 0.08 0.09 0.11 0.12 0.12 0.12 0.12 0.12 0.11 0.11 0.12 0.11 0.10 0.08 0.08 0.09 0.11 0.17 0.19 0.22 0.23 0.25 0.27 0.26 0.24 0.18 0.18 0.15 0.13 0.13 0.15 0.17 0.26 0.20 0.14 0.08 0.04 0.04 0.04 0.05 0.05 0.08 0.10 0.15 0.18 0.21 0.23 0.27 0.25 0.21 0.16 0.11
0.12 0.13 0.11 0.10 0.10 0.09 0.12 0.09 0.09 0.09 0.11 0.08 0.07 0.07 0.08 0.09 0.09 0.10 0.11 0.12 0.13 0.12 0.13 0.13 0.12 0.11 0.12 0.13 0.15 0.16 0.14 0.20 0.26 0.29 0.25 0.24 0.26 0.26 0.21 0.19 0.18 0.17 0.20 0.22 0.21 0.17 0.11 0.08 0.06 0.07 0.07 0.07 0.08 0.10 0.13 0.21 0.23 0.22 0.27 0.29 0.29 0.28 0.21
0.14 0.14 0.13 0.13 0.12 0.12 0.11 0.11 0.10 0.09 0.09 0.08 0.09 0.09 0.09 0.09 0.09 0.08 0.09 0.09 0.10 0.10 0.11 0.12 0.13 0.13 0.12 0.13 0.13 0.14 0.14 0.15 0.15 0.23 0.26 0.27 0.28 0.26 0.29 0.35 0.36 0.30 0.23 0.22 0.22 0.24 0.13 0.10 0.13 0.08 0.11 0.07 0.06 0.08 0.09 0.13 0.20 0.26 0.24 0.26 0.27 0.27 0.24
0.17 0.16 0.15 0.16 0.15 0.14 0.12 0.13 0.12 0.11 0.10 0.09 0.09 0.09 0.11 0.10 0.12 0.13 0.12 0.10 0.09 0.09 0.10 0.11 0.12 0.13 0.12 0.12 0.11 0.12 0.11 0.12 0.15 0.19 0.24 0.22 0.24 0.28 0.37 0.40 0.39 0.37 0.35 0.35 0.33 0.27 0.22 0.17 0.11 0.09 0.07 0.10 0.12 0.15 0.15 0.12 0.13 0.19 0.21 0.25 0.28 0.26 0.25
0.21 0.20 0.21 0.17 0.17 0.18 0.15 0.16 0.14 0.12 0.13 0.13 0.12 0.14 0.17 0.16 0.17 0.16 0.16 0.15 0.14 0.13 0.12 0.11 0.11 0.11 0.14 0.11 0.10 0.10 0.11 0.12 0.14 0.18 0.21 0.21 0.24 0.30 0.36 0.39 0.39 0.41 0.43 0.42 0.38 0.35 0.24 0.20 0.15 0.13 0.11 0.12 0.14 0.16 0.15 0.12 0.11 0.16 0.17 0.18 0.20 0.23 0.27
0.22 0.24 0.33 0.22 0.20 0.19 0.21 0.19 0.16 0.14 0.15 0.19 0.26 0.31 0.31 0.31 0.29 0.27 0.25 0.24 0.21 0.18 0.15 0.14 0.12 0.11 0.09 0.10 0.11 0.12 0.13 0.15 0.18 0.18 0.20 0.24 0.26 0.29 0.37 0.41 0.45 0.44 0.40 0.41 0.46 0.38 0.30 0.31 0.22 0.14 0.11 0.10 0.09 0.07 0.06 0.07 0.08 0.09 0.09 0.10 0.17 0.19 0.24
0.30 0.29 0.29 0.28 0.28 0.31 0.27 0.25 0.20 0.17 0.24 0.40 0.53 0.49 0.48 0.43 0.36 0.30 0.28 0.25 0.23 0.20 0.16 0.14 0.13 0.12 0.11 0.11 0.12 0.13 0.16 0.19 0.19 0.25 0.28 0.25 0.23 0.29 0.36 0.43 0.47 0.43 0.38 0.41 0.39 0.37 0.31 0.26 0.20 0.12 0.12 0.11 0.09 0.07 0.07 0.09 0.09 0.09 0.10 0.14 0.18 0.24 0.22
0.38 0.31 0.29 0.29 0.29 0.31 0.28 0.29 0.23 0.26 0.41 0.50 0.64 0.78 0.64 0.58 0.48 0.38 0.32 0.27 0.24 0.20 0.18 0.16 0.15 0.14 0.13 0.13 0.12 0.12 0.13 0.15 0.19 0.24 0.25 0.28 0.34 0.40 0.50 0.54 0.47 0.47 0.45 0.37 0.40 0.40 0.33 0.33 0.23 0.12 0.10 0.09 0.11 0.12 0.11 0.12 0.13 0.15 0.17 0.18 0.18 0.16 0.17
0.35 0.34 0.34 0.34 0.38 0.32 0.30 0.29 0.25 0.32 0.49 0.56 0.77 0.90 0.91 0.75 0.58 0.44 0.33 0.28 0.24 0.22 0.20 0.18 0.20 0.18 0.17 0.14 0.12 0.15 0.15 0.16 0.17 0.19 0.24 0.28 0.31 0.34 0.50 0.59 0.67 0.55 0.46 0.49 0.46 0.43 0.35 0.24 0.22 0.27 0.16 0.09 0.10 0.17 0.20 0.17 0.19 0.21 0.22 0.21 0.19 0.15 0.13
0.40 0.39 0.43 0.43 0.43 0.40 0.38 0.35 0.32 0.38 0.63 0.80 0.93 1.06 1.09 0.79 0.67 0.52 0.41 0.33 0.28 0.24 0.22 0.21 0.23 0.24 0.22 0.17 0.17 0.18 0.18 0.18 0.18 0.18 0.19 0.22 0.27 0.30 0.31 0.45 0.51 0.52 0.45 0.42 0.48 0.53 0.45 0.28 0.33 0.24 0.23 0.39 0.30 0.28 0.30 0.28 0.26 0.27 0.28 0.28 0.25 0.18 0.17
0.45 0.46 0.48 0.49 0.56 0.52 0.50 0.42 0.40 0.57 0.82 0.87 0.99 1.03 1.31 0.95 0.87 0.71 0.53 0.41 0.35 0.32 0.29 0.25 0.23 0.22 0.21 0.18 0.18 0.18 0.18 0.19 0.19 0.19 0.20 0.20 0.20 0.20 0.19 0.20 0.19 0.25 0.39 0.44 0.35 0.33 0.31 0.26 0.23 0.21 0.19 0.20 0.28 0.41 0.43 0.36 0.32 0.28 0.29 0.32 0.31 0.33 0.30
0.38 0.38 0.39 0.37 0.40 0.45 0.44 0.34 0.39 0.63 0.83 0.90 1.08 1.24 1.17 1.09 0.82 0.65 0.56 0.46 0.40 0.35 0.31 0.27 0.27 0.28 0.25 0.21 0.19 0.18 0.37 0.26 0.23 0.27 0.28 0.25 0.20 0.17 0.15 0.15 0.14 0.19 0.22 0.19 0.29 0.31 0.27 0.23 0.18 0.27 0.29 0.33 0.36 0.34 0.34 0.38 0.41 0.43 0.48 0.53 0.55 0.44 0.31
0.27 0.29 0.33 0.33 0.34 0.36 0.32 0.30 0.34 0.50 0.76 0.82 1.01 1.40 1.47 1.24 0.85 0.65 0.53 0.43 0.38 0.35 0.33 0.30 0.28 0.28 0.29 0.25 0.22 0.18 0.40 0.45 0.49 0.41 0.39 0.38 0.31 0.24 0.21 0.18 0.12 0.26 0.40 0.58 0.65 0.73 0.51 0.42 0.38 0.39 0.47 0.51 0.50 0.38 0.36 0.38 0.49 0.49 0.40 0.46 0.47 0.35 0.23
0.30 0.29 0.30 0.33 0.33 0.33 0.35 0.31 0.30 0.42 0.60 0.72 0.94 1.07 1.04 0.99 0.91 0.66 0.53 0.46 0.39 0.37 0.37 0.31 0.33 0.30 0.29 0.28 0.23 0.29 0.44 0.61 0.62 0.75 0.55 0.40 0.37 0.34 0.29 0.21 0.14 0.12 0.15 0.37 0.70 0.85 0.84 0.93 0.77 0.69 0.69 0.84 0.85 0.77 0.53 0.56 0.60 0.40 0.27 0.34 0.34 0.33 0.21
0.30 0.29 0.29 0.30 0.31 0.33 0.37 0.36 0.32 0.36 0.57 0.78 0.98 1.03 1.01 0.96 0.89 0.78 0.65 0.59 0.54 0.45 0.37 0.31 0.28 0.33 0.37 0.31 0.28 0.46 0.59 0.91 0.77 0.72 0.54 0.34 0.34 0.37 0.32 0.21 0.15 0.14 0.17 0.18 0.22 0.30 0.37 0.43 0.58 0.52 0.52 0.42 0.52 0.60 0.70 0.50 0.43 0.39 0.39 0.39 0.33 0.30 0.30
0.25 0.26 0.28 0.31 0.37 0.38 0.38 0.37 0.36 0.39 0.52 0.77 0.80 0.96 0.87 0.73 0.71 0.74 0.69 0.65 0.58 0.60 0.53 0.41 0.36 0.31 0.35 0.59 0.72 0.56 0.82 0.92 1.29 0.77 0.72 0.53 0.46 0.39 0.27 0.15 0.12 0.15 0.17 0.19 0.21 0.20 0.19 0.25 0.29 0.35 0.45 0.46 0.42 0.36 0.42 0.62 0.44 0.44 0.45 0.42 0.35 0.28 0.26
0.27 0.31 0.35 0.34 0.35 0.38 0.38 0.38 0.37 0.32 0.45 0.61 0.64 0.76 1.02 0.77 0.68 0.61 0.61 0.64 0.66 0.56 0.49 0.45 0.40 0.37 0.33 0.42 0.60 0.67 0.75 0.88 1.10 0.99 0.70 0.65 0.55 0.32 0.19 0.20 0.25 0.27 0.23 0.27 0.23 0.22 0.21 0.22 0.26 0.35 0.40 0.44 0.40 0.39 0.37 0.47 0.35 0.38 0.32 0.40 0.44 0.37 0.30
0.35 0.34 0.28 0.25 0.29 0.33 0.34 0.33 0.32 0.36 0.40 0.41 0.58 0.77 1.01 0.84 0.71 0.59 0.65 0.70 0.55 0.43 0.38 0.35 0.36 0.37 0.38 0.40 0.53 0.68 1.00 0.95 1.04 1.16 0.85 0.70 0.63 0.59 0.56 0.33 0.30 0.29 0.33 0.30 0.29 0.27 0.26 0.27 0.28 0.29 0.32 0.39 0.40 0.36 0.48 0.39 0.32 0.27 0.24 0.22 0.24 0.29 0.31
0.35 0.30 0.28 0.27 0.31 0.32 0.31 0.30 0.30 0.40 0.34 0.34 0.51 0.68 0.84 0.87 0.84 0.81 0.64 0.58 0.49 0.36 0.31 0.29 0.32 0.33 0.36 0.44 0.75 0.92 1.05 1.09 1.30 1.13 1.10 1.13 0.98 0.85 0.74 0.71 0.67 0.54 0.46 0.40 0.33 0.30 0.34 0.30 0.26 0.29 0.27 0.25 0.33 0.31 0.25 0.27 0.26 0.27 0.27 0.28 0.22 0.18 0.18
0.34 0.26 0.27 0.30 0.31 0.31 0.29 0.29 0.34 0.35 0.30 0.32 0.37 0.54 0.77 0.82 0.83 0.75 0.59 0.53 0.42 0.36 0.35 0.33 0.31 0.30 0.41 0.64 0.64 0.71 0.90 1.12 1.09 1.10 1.22 1.36 1.22 0.84 0.80 0.79 0.78 0.70 0.59 0.49 0.40 0.37 0.31 0.28 0.20 0.21 0.20 0.21 0.17 0.26 0.30 0.28 0.27 0.25 0.26 0.25 0.21 0.17 0.16
0.26 0.28 0.29 0.29 0.31 0.34 0.33 0.33 0.34 0.30 0.30 0.31 0.34 0.40 0.56 0.63 0.71 0.61 0.58 0.53 0.43 0.39 0.37 0.36 0.45 0.50 0.54 0.58 0.62 0.64 0.64 0.78 0.76 0.78 0.98 0.89 0.88 0.92 0.89 0.95 0.82 0.63 0.51 0.55 0.53 0.41 0.29 0.20 0.18 0.17 0.17 0.17 0.19 0.22 0.32 0.36 0.34 0.31 0.25 0.26 0.24 0.23 0.17
0.30 0.27 0.26 0.29 0.29 0.33 0.36 0.39 0.33 0.28 0.30 0.34 0.35 0.37 0.45 0.55 0.48 0.50 0.46 0.51 0.45 0.36 0.33 0.34 0.38 0.37 0.37 0.42 0.50 0.60 0.71 0.92 0.68 0.61 0.59 0.72 0.84 0.79 0.87 0.90 0.78 0.59 0.53 0.47 0.34 0.29 0.27 0.23 0.19 0.21 0.24 0.19 0.22 0.28 0.32 0.37 0.39 0.42 0.35 0.31 0.33 0.32 0.29
0.32 0.31 0.33 0.35 0.34 0.37 0.37 0.39 0.31 0.29 0.32 0.40 0.45 0.45 0.47 0.51 0.47 0.50 0.42 0.41 0.48 0.44 0.37 0.35 0.38 0.37 0.38 0.39 0.44 0.53 0.62 0.57 0.48 0.52 0.70 0.60 0.55 0.75 0.84 1.07 0.74 0.54 0.49 0.39 0.31 0.26 0.20 0.19 0.26 0.25 0.33 0.36 0.33 0.33 0.30 0.30 0.31 0.37 0.36 0.32 0.30 0.28 0.26
0.47 0.49 0.54 0.57 0.50 0.50 0.43 0.36 0.31 0.32 0.42 0.53 0.54 0.56 0.51 0.48 0.47 0.53 0.54 0.40 0.40 0.42 0.38 0.38 0.39 0.44 0.44 0.55 0.59 0.59 0.59 0.56 0.53 0.45 0.40 0.42 0.49 0.56 0.63 0.73 0.72 0.67 0.65 0.49 0.47 0.48 0.37 0.37 0.35 0.37 0.36 0.34 0.32 0.26 0.24 0.27 0.32 0.32 0.39 0.43 0.38 0.42 0.37
0.85 0.75 0.78 0.66 0.64 0.70 0.59 0.47 0.48 0.48 0.52 0.55 0.54 0.57 0.55 0.56 0.53 0.50 0.47 0.37 0.37 0.40 0.42 0.41 0.43 0.44 0.44 0.43 0.44 0.46 0.47 0.44 0.40 0.37 0.37 0.44 0.48 0.45 0.47 0.48 0.62 0.68 0.58 0.46 0.49 0.56 0.53 0.54 0.51 0.42 0.34 0.34 0.35 0.28 0.24 0.26 0.31 0.34 0.34 0.42 0.49 0.50 0.41
1.00 0.97 0.93 0.76 0.56 0.60 0.70 0.65 0.56 0.53 0.66 0.61 0.64 0.71 0.59 0.54 0.58 0.55 0.44 0.37 0.37 0.38 0.39 0.36 0.34 0.35 0.35 0.34 0.32 0.34 0.34 0.33 0.33 0.33 0.34 0.37 0.42 0.40 0.41 0.43 0.47 0.51 0.47 0.43 0.51 0.48 0.52 0.48 0.46 0.39 0.37 0.35 0.34 0.32 0.26 0.25 0.31 0.36 0.39 0.43 0.53 0.52 0.46
0.86 0.89 0.73 0.67 0.73 0.64 0.46 0.45 0.42 0.45 0.61 0.63 0.72 0.71 0.62 0.62 0.67 0.57 0.47 0.40 0.39 0.37 0.33 0.32 0.28 0.31 0.30 0.28 0.28 0.29 0.29 0.29 0.30 0.29 0.29 0.31 0.34 0.34 0.37 0.40 0.42 0.46 0.46 0.45 0.47 0.51 0.54 0.49 0.46 0.41 0.34 0.32 0.28 0.28 0.32 0.37 0.39 0.34 0.40 0.42 0.41 0.42 0.40
0.70 0.77 0.83 0.66 0.72 0.83 0.61 0.51 0.49 0.47 0.62 0.68 0.74 0.70 0.63 0.64 0.72 0.67 0.53 0.39 0.33 0.31 0.29 0.28 0.26 0.28 0.28 0.26 0.25 0.25 0.25 0.28 0.31 0.32 0.32 0.30 0.26 0.25 0.25 0.29 0.36 0.41 0.43 0.45 0.46 0.46 0.50 0.53 0.52 0.47 0.39 0.32 0.28 0.26 0.28 0.35 0.44 0.47 0.56 0.51 0.44 0.38 0.35
0.50 0.55 0.64 0.65 0.79 0.85 0.78 0.61 0.56 0.56 0.61 0.64 0.74 0.71 0.61 0.61 0.64 0.59 0.53 0.47 0.35 0.29 0.30 0.28 0.26 0.26 0.27 0.26 0.25 0.26 0.27 0.30 0.33 0.28 0.27 0.27 0.27 0.25 0.23 0.23 0.24 0.30 0.37 0.40 0.42 0.43 0.45 0.56 0.48 0.51 0.48 0.45 0.37 0.33 0.30 0.26 0.27 0.30 0.32 0.40 0.46 0.42 0.38
0.40 0.37 0.40 0.42 0.56 0.67 0.69 0.58 0.55 0.57 0.58 0.61 0.67 0.69 0.70 0.68 0.61 0.56 0.54 0.38 0.32 0.29 0.29 0.29 0.29 0.29 0.29 0.29 0.29 0.29 0.28 0.29 0.31 0.26 0.24 0.21 0.20 0.21 0.21 0.19 0.21 0.25 0.29 0.31 0.35 0.38 0.37 0.40 0.42 0.50 0.50 0.53 0.46 0.39 0.32 0.31 0.28 0.26 0.31 0.37 0.34 0.32 0.33
0.32 0.29 0.33 0.42 0.44 0.56 0.59 0.50 0.47 0.52 0.61 0.69 0.70 0.68 0.70 0.50 0.49 0.58 0.49 0.35 0.28 0.27 0.27 0.28 0.28 0.28 0.26 0.26 0.26 0.28 0.28 0.27 0.28 0.24 0.22 0.21 0.19 0.17 0.18 0.21 0.20 0.20 0.21 0.23 0.26 0.30 0.32 0.33 0.38 0.43 0.43 0.43 0.43 0.42 0.41 0.35 0.32 0.32 0.30 0.29 0.32 0.27 0.25
0.35 0.31 0.29 0.38 0.37 0.42 0.55 0.55 0.49 0.50 0.64 0.76 0.70 0.65 0.49 0.39 0.38 0.35 0.35 0.32 0.31 0.30 0.31 0.29 0.29 0.29 0.29 0.30 0.31 0.32 0.30 0.29 0.29 0.28 0.27 0.25 0.22 0.19 0.18 0.20 0.21 0.20 0.19 0.19 0.20 0.23 0.25 0.29 0.33 0.38 0.42 0.42 0.38 0.35 0.33 0.31 0.28 0.27 0.29 0.27 0.27 0.31 0.27